FW7499 Weather Reports


time (UTC)temp
F
wind
direction
speed
knots
gust
knots
rain 1hr
in
rain 24hr
in
rain mn
in
humidity
%
barometer
mb
20240614115503 65 337 0.0 0.0 0.00 0.00 0.00 76 1018.1
20240614115007 64 337 0.0 0.0 0.00 0.00 0.00 75 1018.1
20240614114503 64 337 0.0 0.0 0.00 0.00 0.00 75 1018.0
20240614114003 64 337 0.0 0.0 0.00 0.00 0.00 75 1017.8
20240614113504 64 337 0.0 0.0 0.00 0.00 0.00 75 1017.8
20240614113005 64 337 0.0 0.0 0.00 0.00 0.00 75 1017.8
20240614112504 63 337 0.0 0.0 0.00 0.00 0.00 75 1017.7
20240614112005 63 337 0.0 0.0 0.00 0.00 0.00 76 1017.7
20240614111502 63 337 0.0 0.0 0.00 0.00 0.00 75 1017.6
20240614111002 63 337 0.0 0.0 0.00 0.00 0.00 75 1017.6
20240614110506 63 337 0.0 0.0 0.00 0.00 0.00 75 1017.5
20240614110005 63 337 0.0 0.0 0.00 0.00 0.00 75 1017.6
20240614105501 63 337 0.0 0.0 0.00 0.00 0.00 75 1017.8
20240614105003 63 337 0.0 0.0 0.00 0.00 0.00 75 1017.6
20240614104503 63 337 0.0 0.0 0.00 0.00 0.00 75 1017.6
20240614104002 63 337 0.0 0.0 0.00 0.00 0.00 74 1017.7
20240614103502 63 337 0.0 0.0 0.00 0.00 0.00 73 1017.7
20240614103005 63 337 0.0 0.0 0.00 0.00 0.00 73 1017.8
20240614102503 64 337 0.0 0.0 0.00 0.00 0.00 73 1017.5
20240614102003 64 337 0.0 0.0 0.00 0.00 0.00 72 1017.6
20240614101509 64 337 0.0 0.0 0.00 0.00 0.00 71 1017.7
20240614101003 64 337 0.0 0.0 0.00 0.00 0.00 71 1017.9
20240614100506 64 337 0.0 0.0 0.00 0.00 0.00 70 1017.7
20240614100004 64 337 0.0 0.0 0.00 0.00 0.00 70 1017.7
20240614095504 65 337 0.0 0.0 0.00 0.00 0.00 70 1017.6
20240614095004 65 337 0.0 0.0 0.00 0.00 0.00 70 1017.5
20240614094505 65 337 0.0 0.0 0.00 0.00 0.00 68 1017.5
20240614094003 65 337 0.0 0.0 0.00 0.00 0.00 69 1017.4
20240614093502 65 337 0.0 0.0 0.00 0.00 0.00 68 1017.2
20240614093005 66 337 0.0 0.0 0.00 0.00 0.00 67 1017.2
20240614092502 66 337 0.0 0.0 0.00 0.00 0.00 68 1017.2
20240614092006 65 337 0.0 0.0 0.00 0.00 0.00 68 1017.0
20240614091502 66 337 0.0 0.0 0.00 0.00 0.00 68 1016.8
20240614091004 66 337 0.0 0.0 0.00 0.00 0.00 67 1016.8
20240614090503 66 337 0.0 0.0 0.00 0.00 0.00 66 1016.9
20240614090006 67 337 0.0 0.0 0.00 0.00 0.00 64 1017.0
20240614085506 67 337 0.0 0.0 0.00 0.00 0.00 63 1017.0
20240614085004 67 337 0.0 0.0 0.00 0.00 0.00 63 1017.0
20240614084508 67 337 0.0 0.0 0.00 0.00 0.00 63 1017.1
20240614084006 67 337 0.0 0.0 0.00 0.00 0.00 63 1017.1
20240614083505 67 337 0.0 0.0 0.00 0.00 0.00 62 1017.0
20240614083003 68 337 0.0 0.0 0.00 0.00 0.00 62 1017.0
20240614082502 68 337 0.0 0.0 0.00 0.00 0.00 60 1017.0
20240614082005 69 337 0.0 0.0 0.00 0.00 0.00 60 1017.0
20240614081509 69 337 0.0 0.0 0.00 0.00 0.00 58 1017.0
20240614081003 69 337 0.0 0.0 0.00 0.00 0.00 58 1016.9
20240614080506 70 337 0.0 0.0 0.00 0.00 0.00 58 1016.9
20240614080010 70 337 0.0 0.0 0.00 0.00 0.00 57 1016.9
20240614075502 70 337 0.0 0.0 0.00 0.00 0.00 56 1016.8
20240614075003 71 337 0.0 0.0 0.00 0.00 0.00 56 1016.8
20240614074508 71 337 0.0 0.0 0.00 0.00 0.00 56 1016.8
20240614074004 71 337 0.0 0.0 0.00 0.00 0.00 56 1016.8
20240614073503 71 337 0.0 0.0 0.00 0.00 0.00 55 1016.9
20240614073007 72 337 0.0 1.7 0.00 0.00 0.00 53 1016.7
20240614072503 72 337 0.0 1.7 0.00 0.00 0.00 52 1016.6
20240614072004 72 337 0.9 2.6 0.00 0.00 0.00 53 1016.6
20240614071509 71 337 0.9 2.6 0.00 0.00 0.00 54 1016.7
20240614071003 72 337 0.0 0.9 0.00 0.00 0.00 54 1016.7
20240614070503 72 337 0.0 0.9 0.00 0.00 0.00 52 1016.7
20240614070008 73 337 0.0 0.9 0.00 0.00 0.00 52 1016.6
20240614065509 73 337 0.0 1.7 0.00 0.00 0.00 52 1016.5
20240614065009 73 337 0.0 2.6 0.00 0.00 0.00 51 1016.4
20240614064507 73 337 0.0 2.6 0.00 0.00 0.00 52 1016.4
20240614064003 73 336 0.9 2.6 0.00 0.00 0.00 51 1016.3
20240614063508 73 336 0.0 3.5 0.00 0.00 0.00 51 1016.2
20240614063011 73 336 0.9 3.5 0.00 0.00 0.00 52 1016.2
20240614062503 73 336 0.0 1.7 0.00 0.00 0.00 53 1016.1
20240614062002 73 336 0.0 1.7 0.00 0.00 0.00 55 1016.1
20240614061507 73 336 0.0 1.7 0.00 0.00 0.00 56 1016.0
20240614061007 73 336 0.9 1.7 0.00 0.00 0.00 55 1016.1
20240614060503 72 336 0.9 1.7 0.00 0.00 0.00 57 1016.0
20240614060003 72 336 0.0 0.0 0.00 0.00 0.00 60 1016.1
20240614055503 72 336 0.0 0.0 0.00 0.00 0.00 59 1016.3
20240614055003 72 336 0.0 0.0 0.00 0.00 0.00 59 1016.3
20240614054502 72 336 0.0 0.0 0.00 0.00 0.00 60 1016.3
20240614054007 73 336 0.0 0.0 0.00 0.00 0.00 59 1016.3
20240614053506 73 336 0.0 0.9 0.00 0.00 0.00 59 1016.4
20240614053006 73 336 0.0 1.7 0.00 0.00 0.00 59 1016.3
20240614052505 73 336 0.0 1.7 0.00 0.00 0.00 60 1016.3
20240614052005 74 336 0.9 1.7 0.00 0.00 0.00 59 1016.3
20240614051503 73 336 0.9 1.7 0.00 0.00 0.00 59 1016.3
20240614051003 74 336 0.0 1.7 0.00 0.00 0.00 60 1016.3
20240614050505 74 336 0.0 1.7 0.00 0.00 0.00 60 1016.3
20240614050005 74 336 0.0 2.6 0.00 0.00 0.00 60 1016.3
20240614045503 74 336 0.9 2.6 0.00 0.00 0.00 61 1016.3
20240614045007 73 336 0.9 2.6 0.00 0.00 0.00 63 1016.3
20240614044503 73 336 0.9 1.7 0.00 0.00 0.00 66 1016.3
20240614044005 73 336 0.9 1.7 0.00 0.00 0.00 67 1016.3
20240614043503 73 336 0.0 0.9 0.00 0.00 0.00 67 1016.3
20240614043004 73 336 0.0 0.9 0.00 0.00 0.00 66 1016.3
20240614042504 74 336 0.0 0.9 0.00 0.00 0.00 65 1016.2
20240614042003 74 336 0.0 0.9 0.00 0.00 0.00 64 1016.0
20240614041503 74 336 0.0 0.0 0.00 0.00 0.00 64 1015.9
20240614041005 75 336 0.0 0.9 0.00 0.00 0.00 63 1015.8
20240614040503 75 336 0.0 0.9 0.00 0.00 0.00 63 1015.6
20240614040002 75 336 0.0 0.0 0.00 0.00 0.00 62 1015.4
20240614035505 76 336 0.0 1.7 0.00 0.00 0.00 62 1015.4
20240614035004 76 336 0.0 1.7 0.00 0.00 0.00 61 1015.3
20240614034503 77 336 0.0 2.6 0.00 0.00 0.00 60 1015.2
20240614034003 77 336 0.9 2.6 0.00 0.00 0.00 59 1015.0
20240614033505 77 296 0.9 2.6 0.00 0.00 0.00 59 1014.8
20240614033007 77 296 0.0 0.0 0.00 0.00 0.00 58 1014.7
20240614032504 77 296 0.0 0.0 0.00 0.00 0.00 61 1014.6
20240614032003 77 296 0.0 0.0 0.00 0.00 0.00 58 1014.3
20240614031504 77 296 0.0 0.0 0.00 0.00 0.00 59 1014.2
20240614031007 78 296 0.0 0.0 0.00 0.00 0.00 58 1014.0
20240614030502 77 296 0.0 0.0 0.00 0.00 0.00 58 1014.0
20240614030003 77 296 0.0 0.0 0.00 0.00 0.00 58 1013.9
20240614025506 77 296 0.0 0.0 0.00 0.00 0.00 58 1013.7
20240614025004 78 296 0.0 0.0 0.00 0.00 0.00 57 1013.6
20240614024504 78 296 0.0 0.0 0.00 0.00 0.00 56 1013.6
20240614024005 78 296 0.0 0.0 0.00 0.00 0.00 55 1013.6
20240614023505 78 296 0.0 0.0 0.00 0.00 0.00 55 1013.5
20240614023005 78 296 0.0 0.0 0.00 0.00 0.00 54 1013.6
20240614022504 79 296 0.0 0.0 0.00 0.00 0.00 54 1013.5
20240614022007 79 296 0.0 0.0 0.00 0.00 0.00 54 1013.3
20240614021503 80 296 0.0 0.0 0.00 0.00 0.00 53 1013.3
20240614021003 80 296 0.0 0.9 0.00 0.01 0.00 52 1013.3
20240614020507 80 296 0.0 1.7 0.00 0.03 0.00 51 1013.2
20240614020007 80 296 0.0 1.7 0.00 0.03 0.00 51 1013.3
20240614015505 80 296 0.0 0.9 0.00 0.03 0.00 51 1013.2
20240614015003 79 296 0.0 0.9 0.00 0.03 0.00 53 1013.0
20240614014502 80 296 0.0 0.9 0.00 0.03 0.00 52 1013.1
20240614014004 80 296 0.0 0.9 0.00 0.03 0.00 51 1013.0
20240614013504 81 296 0.0 1.7 0.00 0.03 0.00 50 1012.9
20240614013005 81 296 0.0 2.6 0.00 0.03 0.00 49 1012.9
20240614012503 82 296 0.0 2.6 0.00 0.03 0.00 48 1012.5
20240614012005 82 296 0.0 1.7 0.00 0.03 0.00 49 1012.3
20240614011504 82 296 0.0 2.6 0.00 0.03 0.00 48 1012.2
20240614011003 82 112 0.0 4.3 0.00 0.03 0.00 48 1012.1
20240614010504 82 360 0.9 4.3 0.00 0.03 0.00 46 1012.2
20240614010004 82 53 0.0 5.2 0.00 0.03 0.00 47 1012.2
20240614005504 82 10 1.7 5.2 0.00 0.03 0.00 48 1012.2
20240614005006 83 321 0.9 2.6 0.00 0.03 0.00 47 1012.2
20240614004507 83 269 0.0 7.0 0.00 0.03 0.00 47 1012.2
20240614004002 83 5 0.9 7.0 0.00 0.03 0.00 46 1012.2
20240614003503 83 340 1.7 7.0 0.00 0.03 0.00 46 1012.3
20240614003004 83 312 0.9 5.2 0.00 0.03 0.00 45 1012.2
20240614002503 83 112 0.9 6.1 0.00 0.03 0.00 45 1012.2
20240614002003 84 337 2.6 6.1 0.00 0.03 0.00 46 1012.2
20240614001503 84 63 1.7 5.2 0.00 0.03 0.00 45 1012.1
20240614001005 84 121 0.9 7.8 0.00 0.03 0.00 45 1012.1
20240614000506 84 99 0.9 7.8 0.00 0.03 0.00 45 1012.1
20240614000007 84 24 0.9 7.0 0.00 0.03 0.00 45 1012.3
20240613235507 85 109 1.7 7.0 0.00 0.03 0.00 44 1012.4
20240613235003 85 119 1.7 8.7 0.00 0.03 0.00 43 1012.6
20240613234528 85 121 1.7 8.7 0.00 0.03 0.00 44 1012.6
20240613234002 86 111 4.3 8.7 0.00 0.03 0.00 43 1012.5
20240613233502 86 352 1.7 10.4 0.00 0.03 0.00 43 1012.4
20240613233004 86 22 0.0 10.4 0.00 0.03 0.00 44 1012.4
20240613232508 86 95 1.7 7.8 0.00 0.03 0.00 45 1012.3
20240613232005 86 9 1.7 6.1 0.00 0.03 0.00 43 1012.2
20240613231505 87 147 0.0 7.0 0.00 0.03 0.00 44 1012.2
20240613231003 86 352 2.6 7.0 0.00 0.03 0.00 42 1012.3
20240613230510 86 136 2.6 8.7 0.00 0.03 0.00 43 1012.3
20240613230022 87 329 1.7 8.7 0.00 0.03 0.00 43 1012.3
20240613225502 87 117 0.9 6.1 0.00 0.03 0.00 45 1012.5
20240613225004 87 90 1.7 6.1 0.00 0.03 0.00 43 1012.7
20240613224508 86 311 0.9 7.8 0.00 0.03 0.00 45 1012.8
20240613224003 85 76 2.6 8.7 0.00 0.03 0.00 45 1012.9
20240613223503 87 96 1.7 8.7 0.00 0.03 0.00 46 1012.9
20240613223003 86 60 0.9 8.7 0.00 0.03 0.00 48 1012.9
20240613222501 85 79 0.9 6.1 0.00 0.03 0.00 46 1013.0
20240613222003 87 355 2.6 4.3 0.00 0.03 0.00 42 1012.9
20240613221503 87 341 1.7 13.9 0.00 0.03 0.00 44 1012.8
20240613221002 87 309 1.7 13.9 0.00 0.03 0.00 44 1012.8
20240613220504 87 18 2.6 11.3 0.00 0.03 0.00 41 1012.7
20240613220004 87 54 0.9 11.3 0.00 0.03 0.00 42 1012.7
20240613215504 88 24 1.7 10.4 0.00 0.03 0.00 41 1012.6
20240613215004 88 5 2.6 10.4 0.00 0.03 0.00 40 1012.7
20240613214502 87 86 2.6 12.2 0.00 0.03 0.00 42 1012.6
20240613214006 87 134 3.5 12.2 0.00 0.03 0.00 42 1012.6
20240613213502 88 95 2.6 12.2 0.00 0.03 0.00 44 1012.5
20240613213024 88 343 1.7 8.7 0.00 0.03 0.00 43 1012.5
20240613212503 88 298 1.7 4.3 0.00 0.03 0.00 43 1012.6
20240613212003 86 360 1.7 7.0 0.00 0.03 0.00 47 1012.6
20240613211501 87 183 2.6 9.6 0.00 0.03 0.00 43 1012.5
20240613211002 88 360 1.7 9.6 0.00 0.03 0.00 48 1012.6
20240613210501 88 346 2.6 7.8 0.00 0.03 0.00 41 1012.5
20240613210005 88 22 1.7 7.8 0.00 0.03 0.00 42 1012.3
20240613205503 88 104 2.6 7.8 0.00 0.03 0.00 46 1012.3
20240613205002 88 55 1.7 5.2 0.00 0.03 0.00 45 1012.3
20240613204507 88 360 0.9 5.2 0.00 0.03 0.00 46 1012.3
20240613204004 87 311 0.9 7.8 0.00 0.03 0.00 46 1012.5
20240613203504 85 59 1.7 7.8 0.00 0.03 0.00 46 1012.6
20240613203007 85 351 0.0 9.6 0.00 0.03 0.00 47 1012.6
20240613202503 85 360 2.6 9.6 0.00 0.03 0.00 47 1012.5
20240613202005 85 26 1.7 7.8 0.00 0.03 0.00 46 1012.5
20240613201505 85 35 1.7 9.6 0.00 0.03 0.00 46 1012.5
20240613201005 86 49 3.5 9.6 0.00 0.03 0.00 46 1012.5
20240613200503 86 107 2.6 10.4 0.00 0.03 0.00 46 1012.3
20240613200003 85 340 2.6 10.4 0.00 0.03 0.00 45 1012.3
20240613195502 84 79 3.5 10.4 0.00 0.03 0.00 46 1012.4
20240613195004 84 355 1.7 9.6 0.00 0.03 0.00 46 1012.3
20240613194503 85 355 1.7 9.6 0.00 0.03 0.00 48 1012.2
20240613194004 85 74 1.7 9.6 0.00 0.03 0.00 47 1012.2
20240613193505 85 130 1.7 9.6 0.00 0.03 0.00 48 1011.9
20240613193011 85 22 4.3 10.4 0.00 0.03 0.00 47 1011.9
20240613192504 85 57 2.6 10.4 0.00 0.03 0.00 46 1011.8
20240613192004 86 65 2.6 9.6 0.00 0.03 0.00 50 1011.7
20240613191508 85 25 2.6 11.3 0.00 0.03 0.00 48 1011.7
20240613191003 86 29 2.6 14.8 0.00 0.03 0.00 49 1011.8
20240613190503 86 121 3.5 14.8 0.00 0.03 0.00 46 1011.4
20240613190013 87 201 2.6 9.6 0.00 0.03 0.00 46 1011.3
20240613185506 86 51 2.6 12.2 0.00 0.03 0.00 47 1011.2
20240613185003 85 25 4.3 12.2 0.00 0.03 0.00 47 1011.4
20240613184506 85 68 2.6 9.6 0.00 0.03 0.00 49 1011.4
20240613184005 85 5 1.7 10.4 0.00 0.03 0.00 50 1011.4
20240613183502 85 355 2.6 12.2 0.00 0.03 0.00 49 1011.3
20240613183007 86 337 2.6 15.6 0.00 0.03 0.00 50 1011.2
20240613182508 88 344 7.8 15.6 0.00 0.03 0.00 49 1011.1
20240613182003 87 76 0.9 11.3 0.00 0.03 0.00 57 1011.1
20240613181506 86 123 5.2 13.9 0.00 0.03 0.00 54 1011.1
20240613181003 87 77 5.2 13.9 0.00 0.03 0.00 56 1010.9
20240613180507 87 257 4.3 11.3 0.00 0.03 0.00 59 1010.9
20240613180004 89 77 0.9 11.3 0.00 0.03 0.00 62 1010.9
20240613175505 88 25 4.3 11.3 0.00 0.03 0.00 60 1010.8
20240613175004 87 188 6.1 12.2 0.00 0.03 0.00 60 1010.8
20240613174510 88 119 3.5 12.2 0.00 0.03 0.00 60 1010.8
20240613174007 88 119 1.7 11.3 0.00 0.03 0.00 62 1010.8
20240613173503 88 97 2.6 11.3 0.00 0.03 0.00 63 1010.9
20240613173004 87 120 1.7 7.0 0.00 0.03 0.00 61 1010.8
20240613172503 87 17 0.9 10.4 0.00 0.03 0.00 65 1010.6
20240613172005 86 321 0.0 10.4 0.00 0.03 0.00 68 1010.7
20240613171508 87 346 2.6 8.7 0.00 0.03 0.00 62 1010.7
20240613171008 87 62 1.7 8.7 0.00 0.03 0.00 65 1010.5
20240613170505 86 123 2.6 8.7 0.00 0.03 0.00 65 1010.6
20240613170007 86 16 1.7 10.4 0.00 0.03 0.00 64 1010.7
20240613165503 86 49 5.2 10.4 0.00 0.03 0.00 63 1010.6
20240613165006 87 355 1.7 9.6 0.00 0.03 0.00 66 1010.7
20240613164508 87 156 0.9 5.2 0.00 0.03 0.00 67 1010.7
20240613164003 86 355 1.7 5.2 0.00 0.03 0.00 65 1010.6
20240613163512 86 5 0.9 5.2 0.00 0.03 0.00 65 1010.6
20240613163015 85 342 1.7 7.0 0.00 0.03 0.00 63 1010.4
20240613162507 86 103 1.7 7.0 0.00 0.03 0.00 65 1010.2
20240613162005 86 355 1.7 6.1 0.00 0.03 0.00 62 1010.2
20240613161507 86 344 0.9 6.1 0.00 0.03 0.00 62 1010.1
20240613161004 87 76 0.9 5.2 0.00 0.03 0.00 63 1009.9
20240613160506 86 80 0.9 3.5 0.00 0.03 0.00 63 1009.8
20240613160007 86 345 0.9 3.5 0.00 0.03 0.00 62 1009.7
20240613155506 86 355 0.9 3.5 0.00 0.03 0.00 61 1009.7
20240613155006 86 347 0.0 5.2 0.00 0.03 0.00 62 1009.7
20240613154511 84 59 0.0 5.2 0.00 0.03 0.00 62 1009.7
20240613154006 85 91 1.7 5.2 0.00 0.03 0.00 64 1009.8
20240613153503 84 352 0.0 3.5 0.00 0.03 0.00 61 1009.7
20240613153011 84 355 0.0 3.5 0.00 0.03 0.00 63 1009.8
20240613152505 84 352 0.9 2.6 0.00 0.03 0.00 62 1009.8
20240613152002 84 355 0.9 2.6 0.00 0.03 0.00 61 1009.7
20240613151508 84 339 0.9 1.7 0.00 0.03 0.00 62 1009.5
20240613151006 84 339 0.0 1.7 0.00 0.03 0.00 64 1009.5
20240613150505 83 270 0.0 2.6 0.00 0.03 0.00 64 1009.5
20240613150005 82 266 0.9 2.6 0.00 0.03 0.00 65 1009.4
20240613145505 82 340 0.0 2.6 0.00 0.03 0.00 67 1009.4
20240613145007 82 360 0.0 2.6 0.00 0.03 0.00 65 1009.3
20240613144515 82 261 0.9 2.6 0.00 0.03 0.00 66 1009.3
20240613144002 82 94 0.0 2.6 0.00 0.03 0.00 66 1008.8
20240613143506 83 88 0.0 2.6 0.00 0.03 0.00 67 1008.9
20240613143013 82 45 0.0 2.6 0.00 0.03 0.00 67 1009.0
20240613142504 81 82 0.0 2.6 0.00 0.03 0.00 67 1009.0
20240613142006 80 275 0.0 3.5 0.00 0.03 0.00 68 1009.0
20240613141507 80 275 0.9 3.5 0.00 0.03 0.00 68 1009.0
20240613141006 80 204 0.0 2.6 0.00 0.03 0.00 68 1009.0
20240613140506 80 298 0.0 2.6 0.00 0.03 0.00 68 1009.0
20240613140007 79 313 0.0 1.7 0.00 0.03 0.00 72 1009.0
20240613135504 79 196 0.9 3.5 0.00 0.03 0.00 69 1008.9
20240613135007 79 313 0.9 3.5 0.00 0.03 0.00 69 1008.8
20240613134506 79 240 0.0 3.5 0.00 0.03 0.00 69 1008.7
20240613134002 78 35 0.0 3.5 0.00 0.03 0.00 70 1008.6
20240613133504 78 148 0.0 4.3 0.00 0.03 0.00 71 1008.7
20240613133003 78 179 0.9 4.3 0.00 0.03 0.00 70 1008.6
20240613132502 78 193 1.7 4.3 0.00 0.03 0.00 71 1008.6
20240613132003 78 126 0.0 4.3 0.00 0.03 0.00 72 1008.5
20240613131503 77 277 0.9 4.3 0.00 0.03 0.00 72 1008.6
20240613131004 77 88 0.0 3.5 0.00 0.03 0.00 74 1008.6
20240613130502 76 151 0.9 3.5 0.00 0.03 0.00 72 1008.6
20240613130003 76 175 0.0 3.5 0.00 0.03 0.00 74 1008.6
20240613125506 76 246 0.9 2.6 0.00 0.03 0.00 75 1008.5
20240613125003 75 254 0.0 2.6 0.00 0.03 0.00 76 1008.5
20240613124503 75 274 0.0 0.9 0.00 0.03 0.00 78 1008.3
20240613124008 75 274 0.0 0.9 0.00 0.03 0.00 80 1008.1
20240613123503 74 274 0.0 0.9 0.00 0.03 0.00 80 1008.0
20240613123002 74 274 0.0 1.7 0.00 0.03 0.00 81 1007.9
20240613122501 74 268 0.0 1.7 0.00 0.03 0.00 81 1007.8
20240613122003 74 269 0.0 1.7 0.00 0.03 0.00 80 1007.7
20240613121503 74 270 0.0 1.7 0.00 0.03 0.00 80 1007.7
20240613121004 73 279 0.0 0.9 0.00 0.03 0.00 82 1007.7
20240613120502 73 279 0.0 0.9 0.00 0.03 0.00 83 1007.6
20240613120005 72 279 0.0 0.0 0.00 0.03 0.00 82 1007.8